Time,TemperatureF,DewpointF,PressureIn,WindDirection,WindDirectionDegrees,WindSpeedMPH,WindSpeedGustMPH,Humidity,HourlyPrecipIn,Conditions,Clouds,dailyrainin,SoftwareType,DateUTC
2013-04-22 00:01:00,47.1,38.5,30.19,North,10,0.0,0.0,72,0.00,,,0.00,VWS V13.01,2013-04-22 05:01:00,
2013-04-22 00:06:00,46.9,38.7,30.19,North,11,0.0,0.0,73,0.00,,,0.00,VWS V13.01,2013-04-22 05:06:00,
2013-04-22 00:11:00,46.7,38.6,30.19,North,11,0.0,0.0,73,0.00,,,0.00,VWS V13.01,2013-04-22 05:11:00,
2013-04-22 00:16:00,46.6,38.7,30.19,North,11,0.0,0.0,74,0.00,,,0.00,VWS V13.01,2013-04-22 05:16:00,
2013-04-22 00:21:00,46.4,38.6,30.19,North,11,0.0,0.0,74,0.00,,,0.00,VWS V13.01,2013-04-22 05:21:00,
2013-04-22 00:26:00,46.4,38.2,30.19,North,11,0.0,0.0,73,0.00,,,0.00,VWS V13.01,2013-04-22 05:26:00,
2013-04-22 00:31:00,46.6,38.4,30.19,North,11,0.0,0.0,73,0.00,,,0.00,VWS V13.01,2013-04-22 05:31:00,
2013-04-22 00:36:00,46.6,39.8,30.19,North,11,0.0,0.0,77,0.00,,,0.00,VWS V13.01,2013-04-22 05:36:00,
2013-04-22 00:41:00,46.0,39.9,30.19,North,11,0.0,0.0,79,0.00,,,0.00,VWS V13.01,2013-04-22 05:41:00,
2013-04-22 00:45:00,45.7,39.8,30.19,NNE,32,3.1,3.6,80,0.00,,,0.00,VWS V13.01,2013-04-22 05:45:00,
2013-04-22 00:50:00,45.3,40.1,30.19,NNE,32,2.7,3.1,82,0.00,,,0.00,VWS V13.01,2013-04-22 05:50:00,
2013-04-22 00:55:00,44.9,40.4,30.19,NNE,32,3.1,3.1,84,0.00,,,0.00,VWS V13.01,2013-04-22 05:55:00,
2013-04-22 01:00:00,44.6,40.4,30.19,NNE,32,2.2,2.7,85,0.00,,,0.00,VWS V13.01,2013-04-22 06:00:00,
2013-04-22 01:05:00,44.4,40.5,30.19,NNE,32,2.2,2.2,86,0.00,,,0.00,VWS V13.01,2013-04-22 06:05:00,
2013-04-22 01:10:00,44.0,40.7,30.19,NNE,32,2.2,2.2,88,0.00,,,0.00,VWS V13.01,2013-04-22 06:10:00,
2013-04-22 01:15:00,44.0,41.3,30.19,NNE,32,0.0,2.2,90,0.00,,,0.00,VWS V13.01,2013-04-22 06:15:00,
2013-04-22 01:20:00,44.0,41.3,30.19,NNE,32,0.0,0.0,90,0.00,,,0.00,VWS V13.01,2013-04-22 06:20:00,
2013-04-22 01:25:00,44.0,41.0,30.19,NNE,32,0.0,0.0,89,0.00,,,0.00,VWS V13.01,2013-04-22 06:25:00,
2013-04-22 01:30:00,43.9,40.5,30.19,NNE,32,0.0,0.0,88,0.00,,,0.00,VWS V13.01,2013-04-22 06:30:00,
2013-04-22 01:35:00,43.9,40.2,30.19,NNE,32,0.0,0.0,87,0.00,,,0.00,VWS V13.01,2013-04-22 06:35:00,
2013-04-22 01:40:00,43.9,40.0,30.19,NNE,32,0.0,0.0,86,0.00,,,0.00,VWS V13.01,2013-04-22 06:40:00,
2013-04-22 01:45:00,43.7,39.8,30.16,NNE,32,0.0,0.0,86,0.00,,,0.00,VWS V13.01,2013-04-22 06:45:00,
2013-04-22 01:50:00,43.7,39.8,30.16,NNE,32,0.0,0.0,86,0.00,,,0.00,VWS V13.01,2013-04-22 06:50:00,
2013-04-22 01:55:00,43.5,39.6,30.16,NNE,32,0.0,0.0,86,0.00,,,0.00,VWS V13.01,2013-04-22 06:55:00,
2013-04-22 02:00:00,43.5,40.2,30.16,NNE,32,0.0,0.0,88,0.00,,,0.00,VWS V13.01,2013-04-22 07:00:00,
2013-04-22 02:05:00,43.3,40.0,30.16,NNE,32,0.0,0.0,88,0.00,,,0.00,VWS V13.01,2013-04-22 07:05:00,
2013-04-22 02:10:00,43.1,39.8,30.16,NNE,32,0.0,0.0,88,0.00,,,0.00,VWS V13.01,2013-04-22 07:10:00,
2013-04-22 02:15:00,43.0,39.7,30.16,NNE,32,0.0,0.0,88,0.00,,,0.00,VWS V13.01,2013-04-22 07:15:00,
2013-04-22 02:20:00,42.8,39.8,30.16,NNE,32,0.0,0.0,89,0.00,,,0.00,VWS V13.01,2013-04-22 07:20:00,
2013-04-22 02:25:00,42.6,39.6,30.16,NNE,32,0.0,0.0,89,0.00,,,0.00,VWS V13.01,2013-04-22 07:25:00,
2013-04-22 02:30:00,42.2,39.8,30.16,NNE,32,0.0,0.0,91,0.00,,,0.00,VWS V13.01,2013-04-22 07:30:00,
2013-04-22 02:35:00,42.2,40.1,30.16,NNE,32,0.0,0.0,92,0.00,,,0.00,VWS V13.01,2013-04-22 07:35:00,
2013-04-22 02:40:00,42.1,40.2,30.16,NNE,32,0.0,0.0,93,0.00,,,0.00,VWS V13.01,2013-04-22 07:40:00,
2013-04-22 02:45:00,41.9,40.0,30.16,NNE,32,0.0,0.0,93,0.00,,,0.00,VWS V13.01,2013-04-22 07:45:00,
2013-04-22 02:50:00,41.7,39.8,30.16,NNE,32,0.0,0.0,93,0.00,,,0.00,VWS V13.01,2013-04-22 07:50:00,
2013-04-22 02:55:00,41.7,39.8,30.16,NNE,32,0.0,0.0,93,0.00,,,0.00,VWS V13.01,2013-04-22 07:55:00,
2013-04-22 03:00:00,41.5,39.7,30.13,NNE,32,0.0,0.0,93,0.00,,,0.00,VWS V13.01,2013-04-22 08:00:00,
2013-04-22 03:05:00,41.5,39.7,30.13,NNE,32,0.0,0.0,93,0.00,,,0.00,VWS V13.01,2013-04-22 08:05:00,
2013-04-22 03:10:00,41.3,39.2,30.13,NNE,32,0.0,0.0,92,0.00,,,0.00,VWS V13.01,2013-04-22 08:10:00,
2013-04-22 03:15:00,41.2,39.0,30.13,NNE,32,0.0,0.0,92,0.00,,,0.00,VWS V13.01,2013-04-22 08:15:00,
2013-04-22 03:20:00,41.2,39.3,30.13,NNE,32,0.0,0.0,93,0.00,,,0.00,VWS V13.01,2013-04-22 08:20:00,
2013-04-22 03:25:00,41.0,39.1,30.13,NNE,32,0.0,0.0,93,0.00,,,0.00,VWS V13.01,2013-04-22 08:25:00,
2013-04-22 03:30:00,40.8,39.5,30.13,NNE,32,0.0,0.0,95,0.00,,,0.00,VWS V13.01,2013-04-22 08:30:00,
2013-04-22 03:35:00,40.6,39.3,30.13,NNE,32,0.0,0.0,95,0.00,,,0.00,VWS V13.01,2013-04-22 08:35:00,
2013-04-22 03:40:00,40.4,39.1,30.13,NNE,32,0.0,0.0,95,0.00,,,0.00,VWS V13.01,2013-04-22 08:40:00,
2013-04-22 03:45:00,40.4,39.4,30.13,NNE,32,0.0,0.0,96,0.00,,,0.00,VWS V13.01,2013-04-22 08:45:00,
2013-04-22 03:50:00,40.3,39.2,30.13,NNE,32,0.0,0.0,96,0.00,,,0.00,VWS V13.01,2013-04-22 08:50:00,
2013-04-22 03:55:00,40.3,39.2,30.13,NNE,32,0.0,0.0,96,0.00,,,0.00,VWS V13.01,2013-04-22 08:55:00,
2013-04-22 04:00:00,40.1,39.3,30.13,NNE,32,0.0,0.0,97,0.00,,,0.00,VWS V13.01,2013-04-22 09:00:00,
2013-04-22 04:05:00,40.1,39.6,30.13,NNE,32,0.0,0.0,98,0.00,,,0.00,VWS V13.01,2013-04-22 09:05:00,
2013-04-22 04:10:00,39.9,39.4,30.13,NNE,32,0.0,0.0,98,0.00,,,0.00,VWS V13.01,2013-04-22 09:10:00,
2013-04-22 04:15:00,39.7,39.2,30.13,NNE,32,0.0,0.0,98,0.00,,,0.00,VWS V13.01,2013-04-22 09:15:00,
2013-04-22 04:20:00,39.7,39.5,30.13,NNE,32,0.0,0.0,99,0.00,,,0.00,VWS V13.01,2013-04-22 09:20:00,
2013-04-22 04:25:00,39.7,39.7,30.13,NNE,32,0.0,0.0,100,0.00,,,0.00,VWS V13.01,2013-04-22 09:25:00,
2013-04-22 04:30:00,39.7,39.7,30.10,NNE,32,0.0,0.0,100,0.00,,,0.00,VWS V13.01,2013-04-22 09:30:00,
2013-04-22 04:35:00,39.5,39.5,30.10,NNE,32,0.0,0.0,100,0.00,,,0.00,VWS V13.01,2013-04-22 09:35:00,
2013-04-22 04:40:00,39.4,39.4,30.10,NNE,32,0.0,0.0,100,0.00,,,0.00,VWS V13.01,2013-04-22 09:40:00,
2013-04-22 04:45:00,39.2,39.2,30.10,NNE,33,0.0,0.0,100,0.00,,,0.00,VWS V13.01,2013-04-22 09:45:00,
2013-04-22 04:50:00,39.2,39.2,30.10,NNE,33,0.0,0.0,100,0.00,,,0.00,VWS V13.01,2013-04-22 09:50:00,
2013-04-22 04:55:00,39.2,39.2,30.10,NNE,33,0.0,0.0,100,0.00,,,0.00,VWS V13.01,2013-04-22 09:55:00,
2013-04-22 05:00:00,39.2,39.2,30.10,NNE,33,0.0,0.0,100,0.00,,,0.00,VWS V13.01,2013-04-22 10:00:00,
2013-04-22 05:05:00,39.2,39.2,30.10,NNE,33,0.0,0.0,100,0.00,,,0.00,VWS V13.01,2013-04-22 10:05:00,
2013-04-22 05:10:00,39.2,39.2,30.10,NNE,33,0.0,0.0,100,0.00,,,0.00,VWS V13.01,2013-04-22 10:10:00,
2013-04-22 05:15:00,39.2,39.2,30.10,NNE,33,0.0,0.0,100,0.00,,,0.00,VWS V13.01,2013-04-22 10:15:00,
2013-04-22 05:20:00,39.0,39.0,30.10,NNE,33,0.0,0.0,100,0.00,,,0.00,VWS V13.01,2013-04-22 10:20:00,
2013-04-22 05:25:00,39.0,39.0,30.10,NNE,33,0.0,0.0,100,0.00,,,0.00,VWS V13.01,2013-04-22 10:25:00,
2013-04-22 05:30:00,38.8,38.8,30.10,NE,36,0.0,0.0,100,0.00,,,0.00,VWS V13.01,2013-04-22 10:30:00,
2013-04-22 05:35:00,38.6,38.6,30.10,NE,36,0.0,0.0,100,0.00,,,0.00,VWS V13.01,2013-04-22 10:35:00,
2013-04-22 05:40:00,38.6,38.6,30.10,NE,36,0.0,0.0,100,0.00,,,0.00,VWS V13.01,2013-04-22 10:40:00,
2013-04-22 05:45:00,38.8,38.8,30.10,NE,36,0.0,0.0,100,0.00,,,0.00,VWS V13.01,2013-04-22 10:45:00,
2013-04-22 05:50:00,38.6,38.6,30.10,NE,36,0.0,0.0,100,0.00,,,0.00,VWS V13.01,2013-04-22 10:50:00,
2013-04-22 05:55:00,38.6,38.6,30.10,NE,36,0.0,0.0,100,0.00,,,0.00,VWS V13.01,2013-04-22 10:55:00,
2013-04-22 06:00:00,38.6,38.6,30.10,NE,36,0.0,0.0,100,0.00,,,0.00,VWS V13.01,2013-04-22 11:00:00,
2013-04-22 06:05:00,38.5,38.5,30.10,NE,36,0.0,0.0,100,0.00,,,0.00,VWS V13.01,2013-04-22 11:05:00,
2013-04-22 06:10:00,38.5,38.5,30.10,NE,36,0.0,0.0,100,0.00,,,0.00,VWS V13.01,2013-04-22 11:10:00,
2013-04-22 06:15:00,38.3,38.3,30.13,NE,36,0.0,0.0,100,0.00,,,0.00,VWS V13.01,2013-04-22 11:15:00,
2013-04-22 06:20:00,38.3,38.3,30.13,NE,36,0.0,0.0,100,0.00,,,0.00,VWS V13.01,2013-04-22 11:20:00,
2013-04-22 06:25:00,38.1,38.1,30.13,NE,44,0.0,0.0,100,0.00,,,0.00,VWS V13.01,2013-04-22 11:25:00,
2013-04-22 06:30:00,37.9,37.9,30.10,NE,44,0.0,0.0,100,0.00,,,0.00,VWS V13.01,2013-04-22 11:30:00,
2013-04-22 06:35:00,37.7,37.7,30.10,NE,44,0.0,0.0,100,0.00,,,0.00,VWS V13.01,2013-04-22 11:35:00,
2013-04-22 06:40:00,37.9,37.9,30.10,NE,44,0.0,0.0,100,0.00,,,0.00,VWS V13.01,2013-04-22 11:40:00,
2013-04-22 06:45:00,38.3,38.3,30.10,NE,43,0.0,0.0,100,0.00,,,0.00,VWS V13.01,2013-04-22 11:45:00,
2013-04-22 06:50:00,38.3,38.3,30.10,NE,43,0.0,0.0,100,0.00,,,0.00,VWS V13.01,2013-04-22 11:50:00,
2013-04-22 06:55:00,38.3,38.3,30.10,NE,43,0.0,0.0,100,0.00,,,0.00,VWS V13.01,2013-04-22 11:55:00,
2013-04-22 07:00:00,38.3,38.3,30.10,NE,43,0.0,0.0,100,0.00,,,0.00,VWS V13.01,2013-04-22 12:00:00,
2013-04-22 07:05:00,38.5,38.5,30.10,NE,43,0.0,0.0,100,0.00,,,0.00,VWS V13.01,2013-04-22 12:05:00,
2013-04-22 07:10:00,38.5,38.5,30.10,NE,43,0.0,0.0,100,0.00,,,0.00,VWS V13.01,2013-04-22 12:10:00,
2013-04-22 07:15:00,38.5,38.5,30.13,NE,43,0.0,0.0,100,0.00,,,0.00,VWS V13.01,2013-04-22 12:15:00,
2013-04-22 07:20:00,38.6,38.6,30.13,NE,43,0.0,0.0,100,0.00,,,0.00,VWS V13.01,2013-04-22 12:20:00,
2013-04-22 07:25:00,38.8,38.8,30.13,NE,43,0.0,0.0,100,0.00,,,0.00,VWS V13.01,2013-04-22 12:25:00,
2013-04-22 07:30:00,39.2,39.2,30.13,NE,43,0.0,0.0,100,0.00,,,0.00,VWS V13.01,2013-04-22 12:30:00,
2013-04-22 07:35:00,39.7,39.7,30.13,NE,43,0.0,0.0,100,0.00,,,0.00,VWS V13.01,2013-04-22 12:35:00,
2013-04-22 07:40:00,40.3,40.3,30.13,NE,43,0.0,0.0,100,0.00,,,0.00,VWS V13.01,2013-04-22 12:40:00,
2013-04-22 07:45:00,40.8,40.8,30.13,NE,44,0.0,0.0,100,0.00,,,0.00,VWS V13.01,2013-04-22 12:45:00,
2013-04-22 07:50:00,41.5,41.5,30.13,NE,44,0.0,0.0,100,0.00,,,0.00,VWS V13.01,2013-04-22 12:50:00,
2013-04-22 07:55:00,41.9,41.9,30.13,NNE,31,0.0,0.0,100,0.00,,,0.00,VWS V13.01,2013-04-22 12:55:00,
2013-04-22 08:00:00,42.8,42.5,30.10,NNE,31,0.0,0.0,99,0.00,,,0.00,VWS V13.01,2013-04-22 13:00:00,
2013-04-22 08:05:00,44.0,43.0,30.10,NNE,31,0.0,0.0,96,0.00,,,0.00,VWS V13.01,2013-04-22 13:05:00,
2013-04-22 08:10:00,44.9,41.9,30.10,NNE,30,0.0,0.0,89,0.00,,,0.00,VWS V13.01,2013-04-22 13:10:00,
2013-04-22 08:15:00,45.8,42.5,30.13,NNE,31,0.0,0.0,88,0.00,,,0.00,VWS V13.01,2013-04-22 13:15:00,
2013-04-22 08:20:00,46.7,43.4,30.13,NNE,31,0.0,0.0,88,0.00,,,0.00,VWS V13.01,2013-04-22 13:20:00,
2013-04-22 08:25:00,47.8,44.4,30.13,NNE,31,0.0,0.0,88,0.00,,,0.00,VWS V13.01,2013-04-22 13:25:00,
2013-04-22 08:30:00,48.7,39.8,30.13,NNE,26,0.0,0.0,71,0.00,,,0.00,VWS V13.01,2013-04-22 13:30:00,
2013-04-22 08:35:00,50.5,38.8,30.13,NNE,26,0.0,0.0,64,0.00,,,0.00,VWS V13.01,2013-04-22 13:35:00,
2013-04-22 08:40:00,52.5,39.5,30.13,NNE,28,0.0,0.0,61,0.00,,,0.00,VWS V13.01,2013-04-22 13:40:00,
2013-04-22 08:45:00,53.8,41.5,30.13,NE,42,0.0,0.0,63,0.00,,,0.00,VWS V13.01,2013-04-22 13:45:00,
2013-04-22 08:50:00,54.8,39.9,30.13,NE,54,3.6,3.6,57,0.00,,,0.00,VWS V13.01,2013-04-22 13:50:00,
2013-04-22 08:55:00,55.2,38.9,30.13,NE,54,3.1,4.0,54,0.00,,,0.00,VWS V13.01,2013-04-22 13:55:00,
2013-04-22 09:00:00,55.4,39.0,30.13,ENE,73,4.0,4.0,54,0.00,,,0.00,VWS V13.01,2013-04-22 14:00:00,
2013-04-22 09:05:00,56.1,39.2,30.13,ENE,64,3.6,4.9,53,0.00,,,0.00,VWS V13.01,2013-04-22 14:05:00,
2013-04-22 09:10:00,56.6,39.2,30.13,NE,55,4.0,4.0,52,0.00,,,0.00,VWS V13.01,2013-04-22 14:10:00,
2013-04-22 09:15:00,57.0,38.6,30.10,ESE,109,4.0,7.2,50,0.00,,,0.00,VWS V13.01,2013-04-22 14:15:00,
2013-04-22 09:20:00,57.0,38.0,30.10,ESE,118,7.6,7.6,49,0.00,,,0.00,VWS V13.01,2013-04-22 14:20:00,
2013-04-22 09:25:00,57.2,38.2,30.10,East,93,4.0,5.8,49,0.00,,,0.00,VWS V13.01,2013-04-22 14:25:00,
2013-04-22 09:29:00,57.7,39.2,30.13,ENE,61,5.4,6.3,50,0.00,,,0.00,VWS V13.01,2013-04-22 14:29:00,
2013-04-22 09:34:00,58.3,38.7,30.13,East,95,8.3,8.3,48,0.00,,,0.00,VWS V13.01,2013-04-22 14:34:00,
2013-04-22 09:39:00,58.4,38.8,30.13,NNE,27,4.0,4.0,48,0.00,,,0.00,VWS V13.01,2013-04-22 14:39:00,
2013-04-22 09:44:00,59.0,39.9,30.10,ENE,69,4.9,5.4,49,0.00,,,0.00,VWS V13.01,2013-04-22 14:44:00,
2013-04-22 09:49:00,59.2,40.0,30.10,NE,40,3.6,3.6,49,0.00,,,0.00,VWS V13.01,2013-04-22 14:49:00,
2013-04-22 09:54:00,59.7,40.0,30.10,NW,319,0.0,0.0,48,0.00,,,0.00,VWS V13.01,2013-04-22 14:54:00,
2013-04-22 09:59:00,60.6,40.3,30.10,NE,47,0.0,3.1,47,0.00,,,0.00,VWS V13.01,2013-04-22 14:59:00,
2013-04-22 10:04:00,61.5,41.7,30.10,ESE,114,3.6,3.6,48,0.00,,,0.00,VWS V13.01,2013-04-22 15:04:00,
2013-04-22 10:09:00,61.5,41.1,30.10,South,191,3.6,4.9,47,0.00,,,0.00,VWS V13.01,2013-04-22 15:09:00,
2013-04-22 10:14:00,61.1,41.3,30.10,SSE,156,0.0,0.0,48,0.00,,,0.00,VWS V13.01,2013-04-22 15:14:00,
2013-04-22 10:19:00,62.2,41.8,30.10,SE,124,2.7,6.3,47,0.00,,,0.00,VWS V13.01,2013-04-22 15:19:00,
2013-04-22 10:24:00,61.9,40.9,30.10,ESE,110,2.2,2.7,46,0.00,,,0.00,VWS V13.01,2013-04-22 15:24:00,
2013-04-22 10:29:00,61.9,41.4,30.10,SE,125,6.3,7.2,47,0.00,,,0.00,VWS V13.01,2013-04-22 15:29:00,
2013-04-22 10:34:00,62.2,41.2,30.10,NNE,25,3.1,4.0,46,0.00,,,0.00,VWS V13.01,2013-04-22 15:34:00,
2013-04-22 10:39:00,61.9,41.4,30.10,North,3,3.6,4.9,47,0.00,,,0.00,VWS V13.01,2013-04-22 15:39:00,
2013-04-22 10:44:00,62.6,42.1,30.13,ESE,104,2.7,3.1,47,0.00,,,0.00,VWS V13.01,2013-04-22 15:44:00,
2013-04-22 10:49:00,63.1,41.5,30.13,ESE,119,6.3,6.3,45,0.00,,,0.00,VWS V13.01,2013-04-22 15:49:00,
2013-04-22 10:54:00,62.8,41.7,30.13,ESE,122,6.3,6.3,46,0.00,,,0.00,VWS V13.01,2013-04-22 15:54:00,
2013-04-22 10:59:00,63.3,42.2,30.10,ESE,114,5.8,5.8,46,0.00,,,0.00,VWS V13.01,2013-04-22 15:59:00,
2013-04-22 11:04:00,63.8,42.1,30.10,East,95,4.0,4.0,45,0.00,,,0.00,VWS V13.01,2013-04-22 16:04:00,
2013-04-22 11:09:00,63.8,42.1,30.10,East,79,2.7,3.1,45,0.00,,,0.00,VWS V13.01,2013-04-22 16:09:00,
2013-04-22 11:14:00,64.0,41.7,30.10,East,88,4.9,5.8,44,0.00,,,0.00,VWS V13.01,2013-04-22 16:14:00,
2013-04-22 11:19:00,64.2,41.8,30.10,SSE,147,4.5,5.4,44,0.00,,,0.00,VWS V13.01,2013-04-22 16:19:00,
2013-04-22 11:24:00,64.9,42.5,30.10,East,88,2.2,3.1,44,0.00,,,0.00,VWS V13.01,2013-04-22 16:24:00,
2013-04-22 11:29:00,65.5,42.4,30.10,East,83,4.0,6.3,43,0.00,,,0.00,VWS V13.01,2013-04-22 16:29:00,
2013-04-22 11:34:00,65.6,42.6,30.10,ENE,62,5.4,6.3,43,0.00,,,0.00,VWS V13.01,2013-04-22 16:34:00,
2013-04-22 11:39:00,65.8,43.3,30.10,SE,130,5.4,5.4,44,0.00,,,0.00,VWS V13.01,2013-04-22 16:39:00,
2013-04-22 11:44:00,66.0,42.9,30.10,SSE,160,3.6,3.6,43,0.00,,,0.00,VWS V13.01,2013-04-22 16:44:00,
2013-04-22 11:49:00,66.4,43.2,30.10,ESE,114,5.8,6.3,43,0.00,,,0.00,VWS V13.01,2013-04-22 16:49:00,
2013-04-22 11:54:00,66.5,43.4,30.10,South,172,6.3,6.3,43,0.00,,,0.00,VWS V13.01,2013-04-22 16:54:00,
2013-04-22 11:59:00,66.5,43.4,30.10,East,84,6.3,6.3,43,0.00,,,0.00,VWS V13.01,2013-04-22 16:59:00,
2013-04-22 12:04:00,66.4,43.2,30.10,ESE,109,4.0,4.9,43,0.00,,,0.00,VWS V13.01,2013-04-22 17:04:00,
2013-04-22 12:09:00,66.5,43.4,30.10,South,185,4.0,5.4,43,0.00,,,0.00,VWS V13.01,2013-04-22 17:09:00,
2013-04-22 12:14:00,66.9,43.7,30.07,SE,135,3.1,3.1,43,0.00,,,0.00,VWS V13.01,2013-04-22 17:14:00,
2013-04-22 12:19:00,67.4,44.2,30.07,East,92,8.1,8.1,43,0.00,,,0.00,VWS V13.01,2013-04-22 17:19:00,
2013-04-22 12:24:00,67.3,43.4,30.07,ESE,123,8.1,8.1,42,0.00,,,0.00,VWS V13.01,2013-04-22 17:24:00,
2013-04-22 12:29:00,67.3,43.4,30.07,East,81,5.4,5.4,42,0.00,,,0.00,VWS V13.01,2013-04-22 17:29:00,
2013-04-22 12:34:00,67.8,43.9,30.07,ESE,106,5.4,6.3,42,0.00,,,0.00,VWS V13.01,2013-04-22 17:34:00,
2013-04-22 12:39:00,68.2,44.2,30.07,SE,131,4.0,6.3,42,0.00,,,0.00,VWS V13.01,2013-04-22 17:39:00,
2013-04-22 12:44:00,67.6,43.7,30.04,ESE,110,5.8,8.3,42,0.00,,,0.00,VWS V13.01,2013-04-22 17:44:00,
2013-04-22 12:49:00,68.0,44.1,30.04,SE,127,5.4,5.4,42,0.00,,,0.00,VWS V13.01,2013-04-22 17:49:00,
2013-04-22 12:54:00,68.2,44.2,30.04,East,88,5.4,6.3,42,0.00,,,0.00,VWS V13.01,2013-04-22 17:54:00,
2013-04-22 12:59:00,68.2,44.2,30.04,SE,136,5.8,5.8,42,0.00,,,0.00,VWS V13.01,2013-04-22 17:59:00,
2013-04-22 13:04:00,68.2,44.2,30.04,East,99,6.3,8.3,42,0.00,,,0.00,VWS V13.01,2013-04-22 18:04:00,
2013-04-22 13:09:00,68.0,44.1,30.04,ENE,74,3.1,5.8,42,0.00,,,0.00,VWS V13.01,2013-04-22 18:09:00,
2013-04-22 13:14:00,68.2,44.2,30.04,East,82,3.6,4.0,42,0.00,,,0.00,VWS V13.01,2013-04-22 18:14:00,
2013-04-22 13:19:00,69.1,45.0,30.04,ESE,102,8.7,8.7,42,0.00,,,0.00,VWS V13.01,2013-04-22 18:19:00,
2013-04-22 13:24:00,69.6,44.9,30.04,East,79,3.1,3.1,41,0.00,,,0.00,VWS V13.01,2013-04-22 18:24:00,
2013-04-22 13:29:00,69.8,45.0,30.04,SSW,206,4.9,5.8,41,0.00,,,0.00,VWS V13.01,2013-04-22 18:29:00,
2013-04-22 13:34:00,69.6,44.9,30.04,ESE,119,4.0,6.3,41,0.00,,,0.00,VWS V13.01,2013-04-22 18:34:00,
2013-04-22 13:39:00,69.4,45.4,30.04,ESE,102,8.1,8.1,42,0.00,,,0.00,VWS V13.01,2013-04-22 18:39:00,
2013-04-22 13:44:00,69.4,45.4,30.01,NNE,28,4.0,9.6,42,0.00,,,0.00,VWS V13.01,2013-04-22 18:44:00,
2013-04-22 13:49:00,70.1,45.4,30.01,ESE,111,7.6,8.7,41,0.00,,,0.00,VWS V13.01,2013-04-22 18:49:00,
2013-04-22 13:54:00,70.3,45.5,30.01,ENE,76,3.1,5.4,41,0.00,,,0.00,VWS V13.01,2013-04-22 18:54:00,
2013-04-22 13:59:00,70.3,45.5,30.01,ESE,112,4.9,6.3,41,0.00,,,0.00,VWS V13.01,2013-04-22 18:59:00,
2013-04-22 14:04:00,70.5,46.3,30.01,ENE,71,5.8,5.8,42,0.00,,,0.00,VWS V13.01,2013-04-22 19:04:00,
2013-04-22 14:09:00,70.7,45.8,30.01,ESE,121,6.3,8.3,41,0.00,,,0.00,VWS V13.01,2013-04-22 19:09:00,
2013-04-22 14:14:00,70.1,45.4,30.01,SE,143,5.8,5.8,41,0.00,,,0.00,VWS V13.01,2013-04-22 19:14:00,
2013-04-22 14:19:00,70.7,46.5,30.01,ESE,111,4.9,5.8,42,0.00,,,0.00,VWS V13.01,2013-04-22 19:19:00,
2013-04-22 14:24:00,71.0,46.8,30.01,ESE,116,4.0,5.4,42,0.00,,,0.00,VWS V13.01,2013-04-22 19:24:00,
2013-04-22 14:29:00,70.9,46.0,29.98,SSW,205,4.0,8.1,41,0.00,,,0.00,VWS V13.01,2013-04-22 19:29:00,
2013-04-22 14:34:00,71.2,46.3,29.98,ENE,71,6.3,6.3,41,0.00,,,0.00,VWS V13.01,2013-04-22 19:34:00,
2013-04-22 14:39:00,70.9,46.0,29.98,East,99,6.3,8.7,41,0.00,,,0.00,VWS V13.01,2013-04-22 19:39:00,
2013-04-22 14:44:00,70.9,46.7,29.98,SE,132,6.3,7.6,42,0.00,,,0.00,VWS V13.01,2013-04-22 19:44:00,
2013-04-22 14:49:00,71.2,46.3,29.98,SE,125,8.3,12.8,41,0.00,,,0.00,VWS V13.01,2013-04-22 19:49:00,
2013-04-22 14:54:00,71.0,46.2,29.98,ESE,120,6.3,7.6,41,0.00,,,0.00,VWS V13.01,2013-04-22 19:54:00,
2013-04-22 14:59:00,70.9,46.7,29.98,SE,134,8.7,10.5,42,0.00,,,0.00,VWS V13.01,2013-04-22 19:59:00,
2013-04-22 15:04:00,70.9,46.0,29.98,NE,56,6.3,8.7,41,0.00,,,0.00,VWS V13.01,2013-04-22 20:04:00,
2013-04-22 15:09:00,70.9,46.0,29.98,East,98,5.8,7.2,41,0.00,,,0.00,VWS V13.01,2013-04-22 20:09:00,
2013-04-22 15:14:00,71.4,46.5,29.98,SE,127,5.4,5.8,41,0.00,,,0.00,VWS V13.01,2013-04-22 20:14:00,
2013-04-22 15:19:00,71.4,46.5,29.98,SE,129,5.4,5.4,41,0.00,,,0.00,VWS V13.01,2013-04-22 20:19:00,
2013-04-22 15:24:00,71.9,45.0,29.98,ESE,112,8.1,11.0,38,0.00,,,0.00,VWS V13.01,2013-04-22 20:24:00,
2013-04-22 15:29:00,71.6,46.7,29.95,East,86,8.1,12.8,41,0.00,,,0.00,VWS V13.01,2013-04-22 20:29:00,
2013-04-22 15:34:00,71.8,44.8,29.95,ESE,109,5.8,8.1,38,0.00,,,0.00,VWS V13.01,2013-04-22 20:34:00,
2013-04-22 15:39:00,71.8,44.8,29.95,East,81,2.7,6.3,38,0.00,,,0.00,VWS V13.01,2013-04-22 20:39:00,
2013-04-22 15:44:00,71.6,44.7,29.92,SE,128,10.5,10.5,38,0.00,,,0.00,VWS V13.01,2013-04-22 20:44:00,
2013-04-22 15:49:00,71.8,44.8,29.92,ESE,116,3.1,8.1,38,0.00,,,0.00,VWS V13.01,2013-04-22 20:49:00,
2013-04-22 15:54:00,72.5,45.5,29.92,ENE,77,5.8,8.1,38,0.00,,,0.00,VWS V13.01,2013-04-22 20:54:00,
2013-04-22 15:59:00,72.7,45.6,29.95,East,83,10.1,10.1,38,0.00,,,0.00,VWS V13.01,2013-04-22 20:59:00,
2013-04-22 16:04:00,72.3,45.3,29.95,ESE,123,7.6,7.6,38,0.00,,,0.00,VWS V13.01,2013-04-22 21:04:00,
2013-04-22 16:09:00,72.1,45.1,29.95,ESE,114,8.3,11.0,38,0.00,,,0.00,VWS V13.01,2013-04-22 21:09:00,
2013-04-22 16:13:00,72.3,45.3,29.92,ENE,71,5.8,5.8,38,0.00,,,0.00,VWS V13.01,2013-04-22 21:13:00,
2013-04-22 16:18:00,72.1,45.1,29.92,ESE,107,8.1,8.7,38,0.00,,,0.00,VWS V13.01,2013-04-22 21:18:00,
2013-04-22 16:23:00,72.1,45.1,29.92,SE,125,7.6,8.3,38,0.00,,,0.00,VWS V13.01,2013-04-22 21:23:00,
2013-04-22 16:28:00,72.3,45.3,29.92,ESE,120,3.6,6.3,38,0.00,,,0.00,VWS V13.01,2013-04-22 21:28:00,
2013-04-22 16:33:00,72.7,45.6,29.92,SSE,147,8.1,8.1,38,0.00,,,0.00,VWS V13.01,2013-04-22 21:33:00,
2013-04-22 16:38:00,72.8,45.8,29.92,East,83,5.8,7.6,38,0.00,,,0.00,VWS V13.01,2013-04-22 21:38:00,
2013-04-22 16:43:00,72.5,45.5,29.92,East,89,7.6,8.7,38,0.00,,,0.00,VWS V13.01,2013-04-22 21:43:00,
2013-04-22 16:48:00,72.5,45.5,29.92,SE,143,3.1,4.0,38,0.00,,,0.00,VWS V13.01,2013-04-22 21:48:00,
2013-04-22 16:53:00,72.7,45.6,29.92,ESE,103,5.8,5.8,38,0.00,,,0.00,VWS V13.01,2013-04-22 21:53:00,
2013-04-22 16:58:00,72.7,45.6,29.92,SSE,147,6.3,7.6,38,0.00,,,0.00,VWS V13.01,2013-04-22 21:58:00,
2013-04-22 17:03:00,72.5,45.5,29.92,ENE,73,8.3,8.3,38,0.00,,,0.00,VWS V13.01,2013-04-22 22:03:00,
2013-04-22 17:08:00,72.7,45.6,29.92,ENE,69,8.1,8.3,38,0.00,,,0.00,VWS V13.01,2013-04-22 22:08:00,
2013-04-22 17:13:00,72.5,45.5,29.92,East,100,10.1,10.1,38,0.00,,,0.00,VWS V13.01,2013-04-22 22:13:00,
2013-04-22 17:18:00,72.5,45.5,29.92,East,83,9.6,9.6,38,0.00,,,0.00,VWS V13.01,2013-04-22 22:18:00,
2013-04-22 17:23:00,72.7,45.6,29.92,ESE,113,7.6,9.6,38,0.00,,,0.00,VWS V13.01,2013-04-22 22:23:00,
2013-04-22 17:28:00,72.5,45.5,29.92,SE,133,8.1,8.1,38,0.00,,,0.00,VWS V13.01,2013-04-22 22:28:00,
2013-04-22 17:33:00,72.5,45.5,29.92,East,97,3.6,6.3,38,0.00,,,0.00,VWS V13.01,2013-04-22 22:33:00,
2013-04-22 17:38:00,72.7,45.6,29.92,ENE,74,8.3,11.0,38,0.00,,,0.00,VWS V13.01,2013-04-22 22:38:00,
2013-04-22 17:43:00,72.7,45.6,29.92,ESE,107,6.3,8.1,38,0.00,,,0.00,VWS V13.01,2013-04-22 22:43:00,
2013-04-22 17:48:00,72.7,45.6,29.92,East,92,4.9,6.7,38,0.00,,,0.00,VWS V13.01,2013-04-22 22:48:00,
2013-04-22 17:53:00,72.7,45.6,29.92,ESE,110,7.6,8.3,38,0.00,,,0.00,VWS V13.01,2013-04-22 22:53:00,
2013-04-22 17:58:00,72.8,45.8,29.92,SE,143,2.7,4.0,38,0.00,,,0.00,VWS V13.01,2013-04-22 22:58:00,
2013-04-22 18:03:00,72.7,45.6,29.92,SSE,160,5.4,6.3,38,0.00,,,0.00,VWS V13.01,2013-04-22 23:03:00,
2013-04-22 18:08:00,72.5,45.5,29.92,ESE,116,5.8,5.8,38,0.00,,,0.00,VWS V13.01,2013-04-22 23:08:00,
2013-04-22 18:13:00,72.7,45.6,29.92,ESE,116,8.7,8.7,38,0.00,,,0.00,VWS V13.01,2013-04-22 23:13:00,
2013-04-22 18:18:00,72.5,45.5,29.92,SE,136,3.6,5.8,38,0.00,,,0.00,VWS V13.01,2013-04-22 23:18:00,
2013-04-22 18:23:00,72.3,45.3,29.92,ESE,103,6.3,8.1,38,0.00,,,0.00,VWS V13.01,2013-04-22 23:23:00,
2013-04-22 18:28:00,72.1,45.1,29.92,South,183,4.0,5.8,38,0.00,,,0.00,VWS V13.01,2013-04-22 23:28:00,
2013-04-22 18:33:00,71.9,47.0,29.92,ESE,104,5.8,6.3,41,0.00,,,0.00,VWS V13.01,2013-04-22 23:33:00,
2013-04-22 18:38:00,71.8,46.8,29.92,ESE,117,4.0,4.0,41,0.00,,,0.00,VWS V13.01,2013-04-22 23:38:00,
2013-04-22 18:43:00,71.6,46.7,29.92,SE,133,5.8,5.8,41,0.00,,,0.00,VWS V13.01,2013-04-22 23:43:00,
2013-04-22 18:48:00,71.6,46.7,29.92,ESE,119,4.9,4.9,41,0.00,,,0.00,VWS V13.01,2013-04-22 23:48:00,
2013-04-22 18:53:00,71.2,46.3,29.92,ESE,123,5.4,5.4,41,0.00,,,0.00,VWS V13.01,2013-04-22 23:53:00,
2013-04-22 18:58:00,71.0,46.2,29.92,SSE,154,5.4,7.6,41,0.00,,,0.00,VWS V13.01,2013-04-22 23:58:00,
2013-04-22 19:03:00,70.9,46.0,29.92,ESE,113,5.8,5.8,41,0.00,,,0.00,VWS V13.01,2013-04-23 00:03:00,
2013-04-22 19:08:00,70.7,45.8,29.92,SE,132,4.0,4.0,41,0.00,,,0.00,VWS V13.01,2013-04-23 00:08:00,
2013-04-22 19:13:00,70.5,46.3,29.92,SE,135,2.7,3.6,42,0.00,,,0.00,VWS V13.01,2013-04-23 00:13:00,
2013-04-22 19:18:00,70.1,46.0,29.92,East,87,3.6,3.6,42,0.00,,,0.00,VWS V13.01,2013-04-23 00:18:00,
2013-04-22 19:23:00,70.0,45.8,29.92,SSE,150,4.0,4.0,42,0.00,,,0.00,VWS V13.01,2013-04-23 00:23:00,
2013-04-22 19:28:00,69.8,45.7,29.92,ESE,121,8.1,8.1,42,0.00,,,0.00,VWS V13.01,2013-04-23 00:28:00,
2013-04-22 19:33:00,69.6,45.5,29.92,ESE,119,4.5,4.5,42,0.00,,,0.00,VWS V13.01,2013-04-23 00:33:00,
2013-04-22 19:38:00,69.2,45.2,29.92,East,97,2.7,2.7,42,0.00,,,0.00,VWS V13.01,2013-04-23 00:38:00,
2013-04-22 19:43:00,68.9,44.9,29.92,East,98,2.7,2.7,42,0.00,,,0.00,VWS V13.01,2013-04-23 00:43:00,
2013-04-22 19:48:00,68.5,44.5,29.92,East,81,0.0,0.0,42,0.00,,,0.00,VWS V13.01,2013-04-23 00:48:00,
2013-04-22 19:53:00,68.0,44.1,29.92,ENE,59,0.0,0.0,42,0.00,,,0.00,VWS V13.01,2013-04-23 00:53:00,
2013-04-22 19:58:00,67.8,44.5,29.92,ENE,77,3.1,4.0,43,0.00,,,0.00,VWS V13.01,2013-04-23 00:58:00,
2013-04-22 20:03:00,67.6,44.3,29.92,ESE,117,0.0,0.0,43,0.00,,,0.00,VWS V13.01,2013-04-23 01:03:00,
2013-04-22 20:08:00,67.3,44.0,29.92,ESE,108,3.6,3.6,43,0.00,,,0.00,VWS V13.01,2013-04-23 01:08:00,
2013-04-22 20:13:00,66.9,43.7,29.92,East,83,3.1,3.1,43,0.00,,,0.00,VWS V13.01,2013-04-23 01:13:00,
2013-04-22 20:18:00,66.5,44.0,29.92,ENE,69,3.1,3.1,44,0.00,,,0.00,VWS V13.01,2013-04-23 01:18:00,
2013-04-22 20:23:00,66.4,43.8,29.92,NE,53,3.1,3.1,44,0.00,,,0.00,VWS V13.01,2013-04-23 01:23:00,
2013-04-22 20:28:00,66.0,44.1,29.92,NE,53,2.2,2.2,45,0.00,,,0.00,VWS V13.01,2013-04-23 01:28:00,
2013-04-22 20:33:00,65.3,44.0,29.92,NE,51,3.6,3.6,46,0.00,,,0.00,VWS V13.01,2013-04-23 01:33:00,
2013-04-22 20:38:00,64.7,44.1,29.92,NE,52,2.7,2.7,47,0.00,,,0.00,VWS V13.01,2013-04-23 01:38:00,
2013-04-22 20:43:00,64.4,44.3,29.92,ENE,72,3.1,3.1,48,0.00,,,0.00,VWS V13.01,2013-04-23 01:43:00,
2013-04-22 20:48:00,64.2,44.7,29.92,NE,53,2.7,2.7,49,0.00,,,0.00,VWS V13.01,2013-04-23 01:48:00,
2013-04-22 20:53:00,64.0,45.0,29.92,NE,44,4.9,4.9,50,0.00,,,0.00,VWS V13.01,2013-04-23 01:53:00,
2013-04-22 20:58:00,64.0,45.0,29.92,ENE,58,4.0,4.0,50,0.00,,,0.00,VWS V13.01,2013-04-23 01:58:00,
2013-04-22 21:03:00,64.0,45.5,29.95,NNE,24,4.0,4.0,51,0.00,,,0.00,VWS V13.01,2013-04-23 02:03:00,
2013-04-22 21:08:00,64.0,45.5,29.95,ENE,61,4.0,4.0,51,0.00,,,0.00,VWS V13.01,2013-04-23 02:08:00,
2013-04-22 21:13:00,63.8,45.9,29.95,ENE,57,3.1,3.1,52,0.00,,,0.00,VWS V13.01,2013-04-23 02:13:00,
2013-04-22 21:18:00,63.7,46.2,29.95,ENE,63,4.0,4.0,53,0.00,,,0.00,VWS V13.01,2013-04-23 02:18:00,
2013-04-22 21:23:00,63.5,45.6,29.95,ENE,69,2.7,3.6,52,0.00,,,0.00,VWS V13.01,2013-04-23 02:23:00,
2013-04-22 21:28:00,63.3,45.4,29.95,NE,56,2.2,5.4,52,0.00,,,0.00,VWS V13.01,2013-04-23 02:28:00,
2013-04-22 21:33:00,63.3,45.9,29.95,NE,44,2.7,2.7,53,0.00,,,0.00,VWS V13.01,2013-04-23 02:33:00,
2013-04-22 21:38:00,63.1,45.7,29.95,ENE,71,3.1,3.6,53,0.00,,,0.00,VWS V13.01,2013-04-23 02:38:00,
2013-04-22 21:43:00,63.1,45.7,29.95,ENE,75,3.1,6.3,53,0.00,,,0.00,VWS V13.01,2013-04-23 02:43:00,
2013-04-22 21:48:00,63.1,45.2,29.95,East,80,3.1,4.9,52,0.00,,,0.00,VWS V13.01,2013-04-23 02:48:00,
2013-04-22 21:53:00,63.1,45.2,29.95,NE,52,2.7,4.9,52,0.00,,,0.00,VWS V13.01,2013-04-23 02:53:00,
2013-04-22 21:58:00,62.9,45.6,29.95,NE,45,3.1,3.1,53,0.00,,,0.00,VWS V13.01,2013-04-23 02:58:00,
2013-04-22 22:03:00,62.6,45.2,29.95,NE,34,2.7,2.7,53,0.00,,,0.00,VWS V13.01,2013-04-23 03:03:00,
2013-04-22 22:08:00,62.4,45.1,29.95,NNE,33,4.0,4.0,53,0.00,,,0.00,VWS V13.01,2013-04-23 03:08:00,
2013-04-22 22:13:00,62.4,45.1,29.95,NE,51,2.7,4.0,53,0.00,,,0.00,VWS V13.01,2013-04-23 03:13:00,
2013-04-22 22:18:00,62.2,45.4,29.95,NNE,27,4.0,4.0,54,0.00,,,0.00,VWS V13.01,2013-04-23 03:18:00,
2013-04-22 22:23:00,62.2,45.4,29.95,ENE,70,3.6,4.0,54,0.00,,,0.00,VWS V13.01,2013-04-23 03:23:00,
2013-04-22 22:28:00,62.0,45.2,29.95,NE,45,2.2,3.6,54,0.00,,,0.00,VWS V13.01,2013-04-23 03:28:00,
2013-04-22 22:33:00,61.9,45.0,29.95,NE,36,2.7,2.7,54,0.00,,,0.00,VWS V13.01,2013-04-23 03:33:00,
2013-04-22 22:38:00,61.7,44.9,29.95,North,11,0.0,3.1,54,0.00,,,0.00,VWS V13.01,2013-04-23 03:38:00,
2013-04-22 22:43:00,61.5,44.7,29.95,North,1,2.7,3.1,54,0.00,,,0.00,VWS V13.01,2013-04-23 03:43:00,
2013-04-22 22:48:00,61.3,44.5,29.98,NE,42,4.9,4.9,54,0.00,,,0.00,VWS V13.01,2013-04-23 03:48:00,
2013-04-22 22:53:00,61.3,44.5,29.98,NE,38,3.1,3.1,54,0.00,,,0.00,VWS V13.01,2013-04-23 03:53:00,
2013-04-22 22:58:00,61.1,44.4,29.98,NNE,20,2.7,4.0,54,0.00,,,0.00,VWS V13.01,2013-04-23 03:58:00,
2013-04-22 23:01:00,61.1,44.4,29.95,NNE,32,2.2,2.7,54,0.00,,,0.00,VWS V13.01,2013-04-23 04:01:00,
2013-04-22 23:06:00,61.1,44.4,29.95,NNE,29,2.7,3.6,54,0.00,,,0.00,VWS V13.01,2013-04-23 04:06:00,
2013-04-22 23:11:00,61.1,44.4,29.95,NNE,29,0.0,0.0,54,0.00,,,0.00,VWS V13.01,2013-04-23 04:11:00,
2013-04-22 23:16:00,61.0,44.2,29.95,NE,45,2.2,3.1,54,0.00,,,0.00,VWS V13.01,2013-04-23 04:16:00,
2013-04-22 23:21:00,60.8,44.0,29.95,NE,45,0.0,0.0,54,0.00,,,0.00,VWS V13.01,2013-04-23 04:21:00,
2013-04-22 23:26:00,60.6,43.9,29.95,NNE,33,3.1,3.1,54,0.00,,,0.00,VWS V13.01,2013-04-23 04:26:00,
2013-04-22 23:31:00,60.8,44.0,29.95,NNE,13,3.6,3.6,54,0.00,,,0.00,VWS V13.01,2013-04-23 04:31:00,
2013-04-22 23:36:00,61.0,44.7,29.95,NE,40,2.7,2.7,55,0.00,,,0.00,VWS V13.01,2013-04-23 04:36:00,
2013-04-22 23:41:00,60.6,43.9,29.95,NE,40,0.0,0.0,54,0.00,,,0.00,VWS V13.01,2013-04-23 04:41:00,
2013-04-22 23:46:00,60.4,43.7,29.95,ESE,119,0.0,2.7,54,0.00,,,0.00,VWS V13.01,2013-04-23 04:46:00,
2013-04-22 23:51:00,60.8,44.0,29.95,East,92,2.7,2.7,54,0.00,,,0.00,VWS V13.01,2013-04-23 04:51:00,
2013-04-22 23:56:00,61.0,44.2,29.95,ENE,69,4.0,4.0,54,0.00,,,0.00,VWS V13.01,2013-04-23 04:56:00,